Voltar ao catálogo

STARLINK-2098

AtivoComunicaçõesVLEO
NORAD 47378·PAYLOAD·🇺🇸 United States

Lançado Jan 20, 2021 de Cape Canaveral Space Force Station

Loading…

Próximas Passagens (próximas 24 horas)

TLE

AtualizadoSource: CelesTrak SupGP

Época: Sep 14, 2026, 13:14 UTC

1 47378C 21005AF  26257.55187500 -.00029061  00000+0 -93513-3 0  2570
2 47378  53.1594 215.2517 0001585  81.9875 336.7763 15.31695615    16

Acompanhe STARLINK-2098 em tempo real com AllMySat

Download on the App Store